User: anonymous   Login
Location: Delettes
(50.6178°N, 2.2123°E)
Time: 21:57:09
(UTC+00:00)
Language:

STARLINK-1048 - Orbit

View from above orbital plane
View from above orbital plane
View from above satellite
View from above satellite

Ground track
Ground track

The orbit data is extracted from the following two-line orbital elements,

1 44753U 19074AS  20158.58334491 -.00006079 +00000-0 -39847-3 0  9995
2 44753 052.9984 263.3442 0001334 108.7409 096.4283 15.05575446001764
Epoch (UTC): 06 June 2020 14:00:01
Eccentricity: 0.0001334
inclination: 52.9984°
perigee height: 549 km
apogee height: 550 km
right ascension of ascending node: 263.3442°
argument of perigee: 108.7409°
revolutions per day: 15.05575446
mean anomaly at epoch: 96.4283°
orbit number at epoch: 176

The dashed part of the orbit path shows where the satellite is in the earth's shadow,  

DLR